TimeEST,TemperatureF,Dew PointF,Humidity,Sea Level PressureIn,VisibilityMPH,Wind Direction,Wind SpeedMPH,Gust SpeedMPH,PrecipitationIn,Events,Conditions,WindDirDegrees,DateUTC
12:51 AM,42.1,27.0,55,30.52,10.0,NNW,9.2,-,N/A,,Clear,340,2011-12-03 05:51:00
1:51 AM,41.0,27.0,57,30.53,10.0,NNW,11.5,-,N/A,,Clear,330,2011-12-03 06:51:00
2:51 AM,41.0,27.0,57,30.55,10.0,NNW,8.1,-,N/A,,Clear,340,2011-12-03 07:51:00
3:51 AM,39.9,28.0,63,30.56,10.0,North,9.2,-,N/A,,Clear,360,2011-12-03 08:51:00
4:51 AM,39.0,27.0,62,30.59,10.0,North,10.4,-,N/A,,Clear,10,2011-12-03 09:51:00
5:51 AM,37.9,26.1,62,30.61,10.0,North,6.9,-,N/A,,Clear,360,2011-12-03 10:51:00
6:51 AM,37.4,24.8,60,30.63,10.0,NNE,5.8,-,N/A,,Clear,20,2011-12-03 11:51:00
7:51 AM,37.9,24.1,57,30.66,10.0,NNE,9.2,-,N/A,,Partly Cloudy,20,2011-12-03 12:51:00
8:51 AM,39.0,24.1,55,30.67,10.0,NE,8.1,-,N/A,,Partly Cloudy,40,2011-12-03 13:51:00
9:51 AM,39.9,25.0,55,30.68,10.0,NE,9.2,-,N/A,,Partly Cloudy,50,2011-12-03 14:51:00
10:51 AM,42.1,26.1,53,30.67,10.0,ENE,9.2,-,N/A,,Partly Cloudy,60,2011-12-03 15:51:00
11:51 AM,43.0,28.0,56,30.64,10.0,NE,6.9,-,N/A,,Scattered Clouds,40,2011-12-03 16:51:00
12:51 PM,44.1,28.0,53,30.63,10.0,NE,5.8,-,N/A,,Mostly Cloudy,40,2011-12-03 17:51:00
1:51 PM,44.1,28.0,53,30.62,10.0,Calm,Calm,-,N/A,,Mostly Cloudy,0,2011-12-03 18:51:00
2:51 PM,45.0,28.0,52,30.62,10.0,ENE,5.8,-,N/A,,Mostly Cloudy,60,2011-12-03 19:51:00
3:51 PM,45.0,28.9,53,30.62,10.0,ENE,6.9,-,N/A,,Mostly Cloudy,70,2011-12-03 20:51:00
4:51 PM,43.0,28.9,58,30.63,10.0,South,9.2,-,N/A,,Mostly Cloudy,170,2011-12-03 21:51:00
5:51 PM,43.0,30.0,60,30.64,10.0,South,9.2,-,N/A,,Mostly Cloudy,190,2011-12-03 22:51:00
6:51 PM,43.0,30.9,62,30.65,10.0,South,5.8,-,N/A,,Mostly Cloudy,170,2011-12-03 23:51:00
7:51 PM,42.1,30.9,65,30.65,10.0,South,6.9,-,N/A,,Mostly Cloudy,170,2011-12-04 00:51:00
8:51 PM,42.8,30.2,61,30.63,10.0,South,5.8,-,N/A,,Mostly Cloudy,170,2011-12-04 01:51:00
9:51 PM,42.1,30.9,65,30.63,10.0,ESE,4.6,-,N/A,,Scattered Clouds,120,2011-12-04 02:51:00
10:51 PM,41.0,30.9,67,30.63,10.0,SE,3.5,-,N/A,,Scattered Clouds,130,2011-12-04 03:51:00
11:51 PM,41.0,30.9,67,30.61,10.0,SE,4.6,-,N/A,,Scattered Clouds,130,2011-12-04 04:51:00